Regional Weather Roundup
Issued by NWS

Home | Current Version | Previous Version | Graphics & Text | Print | Product List | Glossary On
Versions: 1 2 3 4 5 6 7 8 9 10 11 12 13 14 15 16 17 18 19 20 21 22 23 24 25 26 27 28 29 30 31 32 33 34 35 36 37 38 39 40 41 42 43 44 45 46 47 48 49 50
000
ASUS43 KOAX 201010
RWRNE

WEATHER ROUNDUP FOR NEBRASKA
NATIONAL WEATHER SERVICE OMAHA NE
400 AM CST SAT JAN 20 2018

NOTES: SATELLITE DATA IS BEING USED TO AUGMENT CLOUD COVER ABOVE
       12000 FEET.
       "FAIR" INDICATES FEW OR NO CLOUDS BELOW 12,000 FEET WITH NO
       SIGNIFICANT WEATHER AND/OR OBSTRUCTIONS TO VISIBILITY.


NEZ001>004-019>022-054>056-201100-
NEBRASKA PANHANDLE

CITY           SKY/WX    TMP DP  RH WIND       PRES   REMARKS
SCOTTSBLUFF    CLEAR     27  25  92 NE3       29.75S
ALLIANCE       PTCLDY    24  24 100 W5        29.75R WCI  18
CHADRON        CLEAR     24  22  91 W5        29.80R WCI  18
GORDON         FAIR      24  22  91 CALM      29.77S
KIMBALL        CLOUDY    29  23  78 W6        29.75R WCI  23
SIDNEY         CLOUDY    26  23  88 SW3       29.74S
$$

NEZ057>060-069>072-079>082-201100-
SOUTHWEST NEBRASKA

CITY           SKY/WX    TMP DP  RH WIND       PRES   REMARKS
NORTH PLATTE   MOCLDY    27  25  92 NW3       29.75F
IMPERIAL       MOCLDY    30  28  92 N3        29.74F
LEXINGTON      CLEAR     30  26  86 NE3       29.76S
MCCOOK         PTCLDY    29  26  89 W3        29.75R
OGALLALA       CLOUDY    29  27  93 W5        29.75R WCI  24
$$

NEZ005>010-023>029-035>040-094-201100-
NORTH CENTRAL NEBRASKA

CITY           SKY/WX    TMP DP  RH WIND       PRES   REMARKS
VALENTINE      CLEAR     26  23  88 W5        29.80S WCI  20
AINSWORTH      PTCLDY    28  27  98 N3        29.79F
BROKEN BOW     MOCLDY    33  28  81 N3        29.77R
O`NEILL        PTCLDY    30  29  98 N8        29.81R WCI  22
ORD            MOCLDY    32  29  88 NW7       29.77S WCI  26
THEDFORD       CLOUDY    31  29  92 CALM      29.78F
$$

NEZ041-046>049-061>064-073>077-083>087-201100-
SOUTH CENTRAL NEBRASKA

CITY           SKY/WX    TMP DP  RH WIND       PRES   REMARKS
GRAND ISLAND   CLOUDY    27  26  96 CALM      29.77F
AURORA         CLOUDY    28  27  94 N10       29.77F WCI  19
HASTINGS       CLOUDY    30  27  88 NE5       29.76F WCI  25
HEBRON         CLOUDY    24  22  91 CALM      29.78S
HOLDREGE       CLOUDY    28  27  98 N7        29.75F WCI  20
KEARNEY        CLOUDY    28  26  92 N6        29.77S WCI  22
YORK           CLOUDY    27  27 100 N12       29.78S WCI  16
$$

NEZ011>018-030>034-042>045-201100-
NORTHEAST NEBRASKA

CITY           SKY/WX    TMP DP  RH WIND       PRES   REMARKS
NORFOLK        CLOUDY    30  28  92 NW5       29.78F WCI  25
ALBION         CLOUDY    30  28  93 NW7       29.78F WCI  23
BLAIR          CLOUDY    33  29  85 N6        29.78S WCI  27
COLUMBUS       CLOUDY    23  20  88 CALM      29.80S
FREMONT        PTCLDY    25  23  93 W3        29.80F
TEKAMAH        CLOUDY    24  21  88 NW7       29.81R WCI  16
WAYNE          CLOUDY    26  25  96 CALM      29.81S
$$

NEZ050>053-065>068-078-088>093-201100-
SOUTHEAST NEBRASKA

CITY           SKY/WX    TMP DP  RH WIND       PRES   REMARKS
LINCOLN        CLOUDY    22  20  92 CALM      29.80R
OMAHA EPPLEY   CLOUDY    26  23  88 CALM      29.79F
BEATRICE       CLOUDY    29  26  88 CALM      29.79R
FALLS CITY     CLOUDY    31  25  78 S5        29.82S WCI  26
NEBRASKA CITY  PTCLDY    33  29  85 CALM      29.80S
PLATTSMOUTH    PTCLDY    31  28  85 SE3       29.79S
$$

NEZ044-045-051>053-067-201100-
OMAHA AREA

CITY           SKY/WX    TMP DP  RH WIND       PRES   REMARKS
OMAHA EPPLEY   CLOUDY    26  23  88 CALM      29.79F
BLAIR          CLOUDY    33  29  85 N6        29.78S WCI  27
FREMONT        PTCLDY    25  23  93 W3        29.80F
MILLARD        CLOUDY    27  24  90 NW5       29.80S WCI  22
OFFUTT AFB     CLOUDY    23  21  94 CALM      29.79F
PLATTSMOUTH    PTCLDY    31  28  85 SE3       29.79S
WAHOO          PTSUNNY   28  26  92 N9        29.79S WCI  19
$$



USA.gov is the U.S. government's official web portal to all federal, state and local government web resources and services.